GFSNGP_prec_radar_087.txt.gz
Reflectivity
-20 -20 -13 15 -11 0 7 8 21 25 19 -20 -20 16 36 -2 -20 -20 -20 -20 -20 -2 2 -1 7 5 15 21 22 22 22 23 17 24 20 16 9 15 12 11 -3 -20 -17 13
-20 -20 -20 -17 -20 -20 16 7 -17 -20 39 18 15 12 8 -20 -20 -20 -20 -20 -20 -20 10 6 19 5 12 18 23 17 16 21 19 14 16 13 5 17 17 5 11 12 10 -1
-20 3 12 -4 -15 10 -6 22 -19 -14 31 27 -3 -20 -15 0 -20 -3 -13 -20 -15 -11 -8 10 15 15 19 12 17 18 15 8 23 20 11 11 14 23 10 12 -4 13 12 -0
-19 -14 3 -20 17 2 2 33 27 35 31 13 -20 -15 -19 -11 -20 -13 -10 -20 -5 7 17 25 20 11 25 -6 20 17 16 25 20 11 19 -0 3 18 24 16 7 18 12 13
13 16 -20 -20 27 32 13 23 -16 -20 -14 -20 -20 -20 -20 -3 -10 -14 -17 -3 -20 -8 12 31 18 23 21 24 19 16 27 35 28 26 23 12 14 -6 5 6 -17 -19 -20 -20
10 8 -9 23 29 17 35 13 23 -17 -20 -20 -20 -19 -5 -4 -6 -17 -20 -19 11 20 22 -4 17 30 23 26 24 17 32 34 31 29 32 31 29 28 27 30 21 21 26 23
-20 -11 15 32 37 24 18 15 -20 -19 -20 -20 -20 -6 3 -9 -9 -20 -15 -4 -0 15 -3 13 17 23 16 28 21 23 27 31 33 35 35 37 29 28 31 28 28 24 31 23
12 18 20 16 20 13 25 -2 -13 -20 -20 -20 -20 -12 -12 -16 -13 -7 -9 2 4 -0 19 24 1 -15 -1 13 23 32 31 25 24 28 26 36 34 27 32 30 25 18 12 14
19 20 30 9 4 7 1 11 -18 -20 -20 -20 -18 -20 -20 -17 -19 -17 -14 -1 -2 -3 8 13 -0 -20 4 20 30 21 23 24 23 22 26 28 29 29 30 30 29 24 22 16
12 5 1 3 6 -1 5 -14 -18 -19 -20 -20 -20 -20 -20 -20 -18 -17 -15 -2 4 5 -20 -19 3 4 9 -1 9 13 11 17 19 23 22 21 20 20 23 25 25 28 31 26
17 11 -8 -17 7 11 7 -20 -16 -1 -2 -3 -20 -7 -19 -20 -20 -18 -17 -13 -15 -1 10 9 -13 -18 1 9 11 13 14 14 16 16 16 17 16 14 16 19 21 20 12 11
-3 -0 -12 8 15 11 -6 8 -1 -10 -7 -7 -20 -20 -20 -20 -20 -20 -19 -11 -20 -14 9 15 5 -4 -8 -20 -20 -12 -10 0 8 11 8 7 7 -8 -6 7 9 10 -3 4
-18 -2 -20 -1 6 -3 -20 -20 -20 -20 -20 -20 -4 -20 -20 2 1 -3 -20 -14 -6 4 2 8 10 7 -4 -20 -20 -20 -20 -8 -11 -2 2 1 -6 -20 -20 -16 -8 -10 -15 -20
-5 4 -16 -6 -5 -19 -20 -20 -20 -20 -20 -20 -20 -20 -20 -20 -20 -19 -12 2 2 -0 6 8 1 -6 -9 -10 -16 -20 -20 -20 -20 -20 -20 -20 -16 -20 -20 -20 -20 -20 -20 -20
-11 -20 -20 -20 -20 -20 -20 -20 -20 -20 -20 -20 -20 -20 -20 -20 -20 -20 1 -20 -20 -20 -20 -20 -20 -18 -11 -8 -20 -20 -20 -20 -20 -20 -20 -20 -20 -20 -20 -20 -20 -20 -20 -20
-13 -20 -20 -20 -20 -20 -15 -20 -20 -20 -20 -20 -20 -20 -20 -20 -20 -20 -20 -20 -20 -20 -20 -20 -20 -20 -20 -20 -20 -20 -20 -20 -20 -20 -20 -20 -20 -20 -20 -20 -20 -20 -20 -20
6 -11 -20 -20 -20 -20 -20 -20 -20 -20 -20 -20 -20 -20 -20 -20 -20 -20 -20 -20 -20 -20 -20 -20 -20 -20 -20 -20 -20 -20 -20 -20 -20 -20 -20 -20 -20 -20 -20 -20 -20 -20 -20 -20
3 -13 -20 -20 -20 -20 -20 -20 -20 -20 -20 -20 -20 -20 -20 -20 -20 -20 -20 -20 -20 -20 -20 -20 -20 -20 -20 -20 -20 -20 -20 -20 -20 -20 -20 -20 -20 -20 -20 -20 -20 -20 -20 -20
-20 -20 -20 -20 -20 -20 -20 -20 -20 -20 -20 -20 -20 -20 -20 -20 -20 -20 -20 -20 -20 -20 -20 -20 -20 -20 -20 -20 -20 -20 -20 -20 -20 -20 -20 -20 -20 -20 -20 -20 -20 -20 -20 -20
-20 -20 -20 -20 -20 -20 -20 -20 -20 -20 -20 -20 -20 -20 -20 -20 -20 -20 -20 -20 -20 -20 -20 -20 -20 -20 -20 -20 -20 -20 -20 -20 -20 -20 -20 -20 -20 -20 -20 -20 -20 -20 -20 -20
-20 -20 -20 -20 -20 -20 -20 -20 -20 -20 -20 -20 -20 -20 -20 -20 -20 -20 -20 -20 -20 -20 -20 -20 -20 -20 -20 -20 -20 -20 -20 -20 -20 -20 -20 -20 -20 -20 -20 -20 -20 -20 -20 -20
-20 -20 -20 -20 -20 -20 -20 -20 -20 -20 -20 -20 -20 -20 -20 -20 -20 -20 -20 -20 -20 -20 -20 -20 -20 -20 -20 -20 -20 -20 -20 -20 -20 -20 -20 -20 -20 -20 -20 -20 -20 -20 -20 -20
-20 -20 -20 -20 -20 -20 -20 -20 -20 -20 -20 -20 -20 -20 -20 -20 -20 -20 -20 -20 -20 -20 -20 -20 -20 -20 -20 -20 -20 -20 -20 -20 -20 -20 -20 -20 -20 -20 -20 -20 -20 -20 -20 -20
-20 -20 -20 -20 -20 -20 -20 -20 -20 -20 -20 -20 -20 -20 -20 -20 -20 -20 -20 -20 -20 -20 -20 -20 -20 -20 -20 -20 -20 -20 -20 -20 -20 -20 -20 -20 -20 -20 -20 -20 -20 -20 -20 -20
-20 -20 -20 -20 -20 -20 -20 -20 -20 -20 -20 -20 -20 -20 -20 -20 -20 -20 -20 -20 -20 -20 -20 -20 -20 -20 -20 -20 -20 -20 -20 -20 -20 -20 -20 -20 -20 -20 -20 -20 -20 -20 -20 -20
-20 -20 -20 -20 -20 -20 -20 -20 -20 -20 -13 -16 -19 -20 -20 -20 -20 -20 -20 -20 -20 -20 -20 -20 -20 -20 -20 -20 -20 -20 -20 -20 -20 -20 -20 -20 -20 -20 -20 -20 -20 -20 -20 -20
-20 -20 -20 -20 -20 -20 -20 -20 -20 -20 -20 -20 -20 -19 -9 -20 -20 -20 -20 -20 -20 -20 -20 -20 -20 -20 -20 -20 -20 -20 -20 -20 -20 -20 -20 -20 -20 -20 -20 -20 -20 -20 -20 -20

GFSNGP_prec_radar_090.txt.gz
Reflectivity
-20 -20 -20 -20 -20 -20 -14 -20 25 -4 19 26 20 -19 -14 6 -20 -20 -20 -20 -20 -20 -20 -20 -20 -20 8 1 30 13 23 30 27 -2 16 -1 -10 4 8 4 12 8 6 4
-20 -20 -20 -20 -20 -20 -20 -20 -2 10 18 11 41 11 -17 -20 -20 -20 -20 -20 -20 -20 -20 -20 -20 -11 -20 7 8 16 19 25 28 26 23 -18 6 -20 -20 2 13 14 16 16
-20 -20 -20 -20 -20 -20 -18 3 8 14 4 30 30 23 -20 -8 -20 -20 -20 -10 -17 -20 -20 -18 17 -10 -0 -11 13 21 20 30 16 6 19 10 -11 -7 -20 -2 3 12 11 16
-12 -20 -16 11 24 -6 7 11 34 25 28 -15 -11 6 -3 -7 -3 -3 -2 -4 -2 -2 -20 -20 -13 13 16 8 20 15 32 23 25 13 11 16 -5 -20 -20 -5 7 20 17 14
7 -17 -18 -8 22 22 10 20 10 30 15 -12 -9 -20 -18 -4 -8 -1 -0 4 -5 1 -2 -20 -19 20 27 14 23 17 25 29 23 26 32 26 23 17 5 16 10 9 16 17
6 8 -1 0 -19 18 31 22 32 30 -3 6 -19 -2 -20 -3 -10 -1 -3 -10 -2 -18 -20 -20 -20 17 15 15 4 17 12 28 27 22 33 40 33 25 23 24 22 23 1 24
-20 2 -10 9 9 33 23 18 14 -2 -13 1 -10 -17 -4 -6 -2 -3 -0 1 -13 -1 -3 -4 -15 -20 1 21 17 22 19 9 6 21 27 34 33 30 26 30 20 22 11 15
12 16 7 4 18 24 26 28 -10 -20 -20 -20 -17 -14 -15 -16 -11 -10 -4 -13 -13 -20 -18 -7 -3 -18 -15 -1 18 20 22 24 17 12 20 27 34 26 25 25 20 22 23 24
1 11 18 17 12 31 25 1 -2 -19 -20 -20 -20 -20 -20 -20 -20 -16 -7 -20 -20 -20 -19 -20 -20 -13 -20 6 9 15 18 19 15 12 8 6 15 18 24 29 28 25 24 17
8 8 1 13 19 16 16 -6 -15 -20 -20 -20 -20 -20 -20 -20 -20 -20 -20 -18 -20 -20 -20 -20 -17 -18 -17 -20 -7 1 1 10 7 7 16 5 8 13 15 20 24 23 21 21
-11 1 -16 -15 -5 6 -7 -19 -10 -14 -20 -20 -20 -20 -20 -20 -20 -20 -20 -20 -20 -20 -20 -20 -17 -10 0 18 0 9 15 13 13 10 12 15 16 18 19 19 20 20 21 23
-20 -15 -20 5 0 -14 -11 -15 -20 -20 -17 -20 -20 -20 -20 -20 -20 -20 -20 -20 -20 -20 -20 -20 -20 -19 -12 -7 1 6 3 5 6 5 5 6 10 10 10 12 14 12 10 8
-20 -20 -20 3 -20 -10 -20 -20 -20 -20 -20 -20 -20 -20 -20 -20 -20 -20 -20 -20 -20 -20 -20 -20 -20 -20 -20 -6 -10 -6 -11 -20 -18 -20 -20 -0 -5 -20 -19 -10 1 3 4 5
11 -20 -20 -0 -20 -3 -15 -20 -20 -9 -17 -20 -20 -20 -20 -10 -19 -20 -20 -20 -20 -20 -20 -20 -15 -17 -12 -15 -19 -20 -20 -20 -20 -20 -20 -20 -20 -20 -20 -20 -20 -20 -20 -20
-20 -19 -20 -20 -8 -10 -20 -20 -20 -20 -20 -20 -20 -20 -20 -20 -20 -16 -20 -20 -20 -20 -20 -20 -20 -20 -20 -19 -15 -15 -17 -20 -20 -20 -20 -20 -20 -20 -20 -20 -20 -20 -20 -20
14 -13 -17 -6 -20 -20 -20 -20 -20 -20 -20 -20 -20 -20 -20 -20 -20 -20 -20 -20 -20 -20 -20 -20 -20 -20 -20 -20 -20 -20 -20 -20 -20 -20 -20 -20 -20 -20 -20 -20 -20 -20 -20 -20
-3 -5 -8 -11 -20 -20 -20 -20 -20 -20 -20 -20 -20 -20 -20 -20 -20 -20 -20 -20 -20 -20 -20 -20 -20 -20 -20 -20 -20 -20 -20 -20 -20 -20 -20 -20 -20 -20 -20 -20 -20 -20 -20 -20
11 8 13 -6 -20 -20 -20 -20 -20 -20 -20 -20 -20 -20 -20 -20 -20 -20 -20 -20 -20 -20 -20 -20 -20 -20 -20 -20 -20 -20 -20 -20 -20 -20 -20 -20 -20 -20 -20 -20 -20 -20 -20 -20
-13 -15 -20 -20 -20 -20 -20 -20 -20 -20 -20 -20 -20 -20 -20 -20 -20 -20 -20 -20 -20 -20 -20 -20 -20 -20 -20 -20 -20 -20 -20 -20 -20 -20 -20 -20 -20 -20 -20 -20 -20 -20 -20 -20
-20 -20 -20 -20 -20 -20 -20 -20 -20 -20 -20 -20 -20 -20 -20 -20 -20 -20 -20 -20 -20 -20 -20 -20 -20 -20 -20 -20 -20 -20 -20 -20 -20 -20 -20 -20 -20 -20 -20 -20 -20 -20 -20 -20
-20 -20 -20 -20 -20 -20 -20 -20 -20 -20 -20 -20 -20 -20 -20 -20 -20 -20 -20 -20 -20 -20 -20 -20 -20 -20 -20 -20 -20 -20 -20 -20 -20 -20 -20 -20 -20 -20 -20 -20 -20 -20 -20 -20
-20 -20 -20 -20 -20 -20 -20 -20 -20 -20 -20 -20 -20 -20 -20 -20 -20 -20 -20 -20 -20 -20 -20 -20 -20 -20 -20 -20 -20 -20 -20 -20 -20 -20 -20 -20 -20 -20 -20 -20 -20 -20 -20 -20
-20 -20 -20 -20 -20 -20 -20 -20 -20 -20 -20 -20 -20 -20 -20 -20 -20 -20 -20 -20 -20 -20 -20 -20 -20 -20 -20 -20 -20 -20 -20 -20 -20 -20 -20 -20 -20 -20 -20 -20 -20 -20 -20 -20
-20 -20 -20 -20 -20 -20 -20 -20 -20 -20 -20 -20 -20 -20 -20 -20 -20 -20 -20 -20 -20 -20 -20 -20 -20 -20 -20 -20 -20 -20 -20 -20 -20 -20 -20 -20 -20 -20 -20 -20 -20 -20 -20 -20
-20 -20 -20 -20 -20 -20 -20 -20 -20 -20 -20 -20 -20 -20 -20 -20 -20 -20 -20 -20 -20 -20 -20 -20 -20 -20 -20 -20 -20 -20 -20 -20 -20 -20 -20 -20 -20 -20 -20 -20 -20 -20 -20 -20
-20 -20 -20 -20 -20 -20 -20 -20 -20 -20 -20 -20 -20 -20 -20 -20 -20 -20 -20 -20 -20 -20 -20 -20 -20 -20 -20 -20 -20 -20 -20 -20 -20 -20 -20 -20 -20 -20 -20 -20 -20 -20 -20 -20
-20 -20 -20 -20 -20 -20 -20 -20 -20 -20 -20 -20 -20 -20 -20 -20 -20 -20 -20 -20 -20 -20 -20 -20 -20 -20 -20 -20 -20 -20 -20 -20 -20 -20 -20 -20 -20 -20 -20 -20 -20 -20 -20 -20

GFSNGP_prec_radar_096.txt.gz
Reflectivity
-20 -20 -20 -20 -20 -20 -20 -20 -20 -20 -20 -20 -20 -20 -4 2 12 23 -1 -20 -20 -20 -20 -20 6 -13 7 20 32 31 10 10 15 18 33 38 25 22 -9 -20 -15 -14 -17 -16
-20 -20 -20 -20 -20 -20 -20 -20 -20 -20 -20 -20 -20 -13 -20 -11 -4 9 13 -18 -20 -20 -20 -20 -16 14 -8 -9 -1 28 16 9 18 22 33 37 37 17 12 13 12 -20 -20 -20
-20 -20 -20 -20 -20 -20 -16 -20 -20 -20 -20 -20 0 -20 -20 -13 2 7 -6 -8 -20 -20 -20 -20 -19 1 11 6 7 -9 23 15 31 29 31 30 39 40 15 21 13 -13 -15 -20
-20 -20 -20 -20 -20 -20 -20 5 8 -14 -5 -10 -20 -18 -6 17 22 1 -5 -1 -5 -20 -20 -19 -20 -19 -10 8 11 -8 9 35 14 25 34 40 42 32 27 19 8 1 10 -20
-20 -20 -20 -20 -0 -18 -2 -19 12 -8 -2 9 12 -2 -0 1 -4 -2 -0 2 -2 -1 -2 -20 -20 -20 -20 -15 12 13 10 9 22 38 25 38 38 32 30 16 3 -4 -20 -20
-5 -20 -20 -20 -20 -13 8 4 7 13 18 19 20 12 0 5 -8 -20 -9 -20 -20 -19 -3 -20 -20 -20 -20 -20 -19 -15 0 -2 14 24 28 34 38 37 33 23 28 20 8 -3
-20 -17 -20 -20 -18 -14 10 8 13 26 24 29 24 17 5 -9 -20 -20 -19 -19 -20 -20 -20 -20 -20 -20 -20 -20 -18 -14 -12 5 -17 -20 -10 19 19 25 33 30 24 29 15 13
-6 -20 -20 -20 -20 -8 11 13 21 24 21 19 13 -19 -17 -20 -17 -20 -20 -19 -20 -19 -20 -15 -20 -20 -20 -20 -18 -20 -20 -20 -20 -20 -19 -17 -15 5 20 11 22 21 19 22
-20 -20 2 -3 9 14 12 17 20 18 18 10 -15 -8 -19 -20 -20 -20 -20 -20 -19 -18 -18 -19 -20 -20 -20 -20 -20 -20 -20 -20 -20 -20 -20 -20 -20 -20 -20 -3 6 12 20 21
-12 3 -7 -3 7 0 10 14 15 7 -14 -20 -20 -20 -20 -20 -20 -20 -20 -20 -20 -20 -20 -20 -18 -16 -3 -20 -20 -20 -20 -20 -20 -20 -20 -20 -20 -20 -20 -20 -16 -5 -9 -4
-20 5 -19 2 -0 2 10 5 -18 -18 -20 -20 -20 -20 -20 -20 -20 -20 -20 -20 -20 -20 -20 -20 -20 -20 -20 -20 -20 -20 -20 -20 -20 -20 -20 -20 -20 -20 -20 -19 -20 -20 -19 -18
-20 -19 -8 -5 4 3 -16 -13 -19 -20 -20 -20 -20 -20 -20 -20 -20 -20 -20 -20 -20 -20 -20 -20 -20 -20 -20 -20 -20 -20 -20 -20 -20 -20 -20 -20 -20 -20 -11 3 -8 -20 -20 -20
-20 -20 -17 -14 -20 -20 -20 -20 -20 -20 -20 -20 -20 -20 -20 -20 -20 -20 -20 -20 -20 -20 -20 -20 -20 -20 -20 -20 -20 -20 -20 -20 -20 -20 -20 -20 -20 -20 -20 -20 -20 -14 -1 2
-20 -20 -20 -16 -18 -18 -20 -20 -20 -20 -20 -20 -20 -20 -20 -20 -20 -20 -20 -20 -20 -20 -20 -20 -20 -20 -20 -20 -20 -20 -20 -20 -20 -20 -20 -20 -20 -20 -20 -20 -20 -20 -19 -20
-5 -20 -20 -20 -20 -20 -20 -20 -20 -20 -20 -20 -20 -20 -20 -20 -20 -20 -20 -20 -20 -20 -20 -20 -20 -20 -20 -20 -20 -20 -20 -20 -20 -20 -20 -20 -20 -20 -20 -20 -20 -20 -20 -20
-12 -20 -20 -20 -20 -20 -20 -20 -20 -20 -20 -20 -20 -20 -20 -20 -20 -20 -20 -20 -20 -20 -20 -20 -20 -20 -20 -20 -20 -20 -20 -20 -20 -20 -20 -20 -20 -20 -20 -20 -20 -20 -20 -20
-20 -20 -20 -20 -20 -20 -20 -20 -20 -20 -20 -20 -20 -20 -20 -20 -20 -20 -20 -20 -20 -20 -20 -20 -20 -20 -20 -20 -20 -20 -20 -20 -20 -20 -20 -20 -20 -20 -20 -20 -20 -20 -20 -20
-20 -20 -20 -20 -20 -20 -20 -20 -20 -20 -20 -20 -20 -20 -20 -20 -20 -20 -20 -20 -20 -20 -20 -20 -20 -20 -20 -20 -20 -20 -20 -20 -20 -20 -20 -20 -20 -20 -20 -20 -20 -20 -20 -20
-20 -20 -20 -20 -20 -20 -20 -20 -20 -20 -20 -20 -20 -20 -20 -20 -20 -20 -20 -20 -20 -20 -20 -20 -20 -20 -20 -20 -20 -20 -20 -20 -20 -20 -20 -20 -20 -20 -20 -20 -20 -20 -20 -20
-20 -20 -20 -20 -20 -20 -20 -20 -20 -20 -20 -20 -20 -20 -20 -20 -20 -20 -20 -20 -20 -20 -20 -20 -20 -20 -20 -20 -20 -20 -20 -20 -20 -20 -20 -20 -20 -20 -20 -20 -20 -20 -20 -20
-20 -20 -20 -20 -20 -20 -20 -20 -20 -20 -20 -20 -20 -20 -20 -20 -20 -20 -20 -20 -20 -20 -20 -20 -20 -20 -20 -20 -20 -20 -20 -20 -20 -20 -20 -20 -20 -20 -20 -20 -20 -20 -20 -20
-20 -20 -20 -20 -20 -20 -20 -20 -20 -20 -20 -20 -20 -20 -20 -20 -20 -20 -20 -20 -20 -20 -20 -20 -20 -20 -20 -20 -20 -20 -20 -20 -20 -20 -20 -20 -20 -20 -20 -20 -20 -20 -20 -20
-20 -20 -20 -20 -20 -20 -20 -20 -20 -20 -20 -20 -20 -20 -20 -20 -20 -20 -20 -20 -20 -20 -20 -20 -20 -20 -20 -20 -20 -20 -20 -20 -20 -20 -20 -20 -20 -20 -20 -20 -20 -20 -20 -20
-20 -20 -20 -20 -20 -20 -20 -20 -20 -20 -20 -20 -20 -20 -20 -20 -20 -20 -20 -20 -20 -20 -20 -20 -20 -20 -20 -20 -20 -20 -20 -20 -20 -20 -20 -20 -20 -20 -20 -20 -20 -20 -20 -20
-20 -20 -20 -20 -20 -20 -20 -20 -20 -20 -20 -20 -20 -20 -20 -20 -20 -20 -20 -20 -20 -20 -20 -20 -20 -20 -20 -20 -20 -20 -20 -20 -20 -20 -20 -20 -20 -20 -20 -20 -20 -20 -20 -20
-20 -20 -20 -20 -20 -20 -20 -20 -20 -20 -20 -20 -20 -20 -20 -20 -20 -20 -20 -20 -20 -20 -20 -20 -20 -20 -20 -20 -20 -20 -20 -20 -20 -20 -20 -20 -20 -20 -20 -20 -20 -20 -20 -20
-20 -20 -20 -20 -20 -20 -20 -20 -20 -20 -20 -20 -20 -20 -20 -20 -20 -20 -20 -20 -20 -20 -20 -20 -20 -20 -20 -20 -20 -20 -20 -20 -20 -20 -20 -20 -20 -20 -20 -20 -20 -20 -20 -20

GFSNGP_prec_radar_099.txt.gz
Reflectivity
-20 -20 -20 -20 -20 -20 -20 -20 -20 -20 -20 -20 -20 -20 -20 -20 -20 -20 -20 -20 -20 -20 -20 -20 -20 -17 -13 -9 34 26 35 19 15 14 12 6 7 9 18 -6 27 -18 -20 -20
-20 -20 -20 -20 -20 -20 -20 -20 -20 -20 -20 -20 -20 -20 -20 -20 -20 -1 -14 -8 -20 -20 -20 -20 -20 -20 -1 7 -10 5 19 32 28 -8 -9 21 22 17 42 16 15 -17 -20 -18
-20 -20 -20 -20 -20 -20 -20 -20 -13 -1 -16 -12 -20 -20 -20 -20 -19 -12 -9 -6 -4 -6 -20 -20 -15 -15 -18 10 21 -5 7 32 22 26 23 23 33 27 41 43 21 22 -4 -20
-20 -20 -20 -11 -20 -15 -15 4 -20 -12 5 -8 -20 -20 -12 0 12 9 6 -2 -4 -4 -20 -20 -20 -20 -20 -16 4 8 -10 -1 26 11 26 13 12 32 41 42 33 24 15 -6
-20 -20 -20 -1 -18 -15 -0 -2 -17 -18 9 -10 10 -2 12 14 18 10 1 -6 -5 -2 -5 -15 -20 -20 -20 -20 -20 -14 14 3 5 9 10 26 36 38 40 42 32 13 4 4
-6 -20 -20 -20 -20 -20 -3 -17 -20 -19 -13 -16 4 14 8 11 10 -2 -20 -20 -18 -1 -1 -20 -19 -20 -20 -20 -20 -20 -16 0 1 4 4 16 24 35 36 36 40 27 4 2
-20 -20 -20 -20 -20 -20 -6 -9 -3 -6 10 17 16 20 18 17 -14 -19 -12 -20 -20 -20 -19 3 -20 -20 -20 -20 -19 -14 -15 -20 -20 -17 -4 2 21 27 28 30 35 29 24 15
-7 -11 -20 -20 -20 -20 -14 4 6 18 19 20 19 14 8 -4 -13 -13 -19 -20 -20 -20 -20 -19 -2 -20 -20 -20 -20 -20 -20 -20 -20 -20 -20 -20 1 12 19 25 29 34 31 26
-20 -20 2 -5 -4 -3 1 5 17 18 20 20 21 17 -7 -8 -15 -20 -20 -20 -20 -20 -20 -20 -20 -7 -20 -20 -20 -20 -20 -20 -20 -20 -20 -20 -20 -17 -11 8 13 10 19 23
-17 3 -9 -0 0 -3 8 8 6 13 14 13 -1 -19 -20 -20 -20 -20 -20 -20 -20 -20 -20 -20 -20 -20 -20 -18 -20 -20 -20 -20 -20 -20 -20 -20 -20 -20 -20 -20 -20 -3 -0 -9
-19 -3 -5 -5 -1 -1 9 6 12 16 10 -1 -20 -20 -20 -20 -20 -20 -20 -20 -20 -20 -20 -20 -20 -20 -20 -20 -20 -20 -20 -20 -20 -20 -20 -20 -8 4 3 6 -0 -3 0 -1
-20 -12 -20 2 6 4 10 16 10 -15 -20 -20 -20 -20 -20 -20 -20 -20 -20 -20 -20 -20 -20 -20 -20 -20 -20 -20 -20 -20 -20 -20 -20 -20 -20 -20 -20 -20 -20 -8 1 -4 -13 1
-19 -20 -20 -19 2 -9 -19 -20 -20 -20 -20 -20 -20 -20 -20 -20 -20 -20 -20 -20 -20 -20 -20 -20 -20 -20 -20 -20 -20 -20 -20 -20 -20 -20 -20 -20 -20 -20 -20 -20 -20 -19 -3 -1
-20 -20 -18 -12 -20 -20 -20 -20 -20 -20 -20 -20 -20 -20 -20 -20 -20 -20 -20 -20 -20 -20 -20 -20 -20 -20 -20 -20 -20 -20 -20 -20 -20 -20 -20 -20 -20 -20 -20 -20 -20 -20 -20 -20
-20 -20 -20 -20 -20 -20 -20 -20 -20 -20 -20 -20 -20 -20 -20 -20 -20 -20 -20 -20 -20 -20 -20 -20 -20 -20 -20 -20 -20 -20 -20 -20 -20 -20 -20 -20 -20 -20 -20 -20 -20 -20 -20 -20
-20 -20 -20 -20 -20 -20 -20 -20 -20 -20 -20 -20 -20 -20 -20 -20 -20 -20 -20 -20 -20 -20 -20 -20 -20 -20 -20 -20 -20 -20 -20 -20 -20 -20 -20 -20 -20 -20 -20 -20 -20 -20 -20 -20
-20 -2 -15 -20 -20 -20 -20 -20 -20 -20 -20 -20 -20 -20 -20 -20 -20 -20 -20 -20 -20 -20 -20 -20 -20 -20 -20 -20 -20 -20 -20 -20 -20 -20 -20 -20 -20 -20 -20 -20 -20 -20 -20 -20
-20 -20 -20 -20 -20 -20 -20 -20 -20 -20 -20 -20 -20 -20 -20 -20 -20 -20 -20 -20 -20 -20 -20 -20 -20 -20 -20 -20 -20 -20 -20 -20 -20 -20 -20 -20 -20 -19 -20 -20 -20 -20 -20 -20
-20 -20 -20 -20 -20 -20 -20 -20 -20 -20 -20 -20 -20 -20 -20 -20 -20 -20 -20 -20 -20 -20 -20 -20 -20 -20 -20 -20 -20 -20 -20 -20 -20 -20 -20 -20 -20 -20 -20 -20 -20 -20 -20 -20
-20 -19 -20 -20 -20 -20 -20 -20 -20 -20 -20 -20 -20 -20 -20 -20 -20 -20 -20 -20 -20 -20 -20 -20 -20 -20 -20 -20 -20 -20 -20 -20 -20 -20 -20 -20 -20 -20 -20 -20 -20 -20 -20 -20
-20 -20 -20 -20 -20 -20 -20 -20 -20 -20 -20 -20 -20 -20 -20 -20 -20 -20 -20 -20 -20 -20 -20 -20 -20 -20 -20 -20 -20 -20 -20 -20 -20 -20 -20 -20 -20 -20 -20 -20 -20 -20 -20 -20
-20 -20 -20 -20 -20 -20 -20 -20 -20 -20 -20 -20 -20 -20 -20 -20 -20 -20 -20 -20 -20 -20 -20 -20 -20 -20 -20 -20 -20 -20 -20 -20 -20 -20 -20 -20 -20 -20 -20 -20 -20 -20 -20 -20
-20 -20 -20 -20 -20 -20 -20 -20 -20 -20 -20 -20 -20 -20 -20 -20 -20 -20 -20 -20 -20 -20 -20 -20 -20 -20 -20 -20 -20 -20 -20 -20 -20 -20 -20 -20 -20 -20 -20 -20 -20 -20 -20 -20
-20 -20 -20 -20 -20 -20 -20 -20 -20 -20 -20 -20 -20 -20 -20 -20 -20 -20 -20 -20 -20 -20 -20 -20 -20 -20 -20 -20 -20 -20 -20 -20 -20 -20 -20 -20 -20 -20 -20 -20 -20 -20 -20 -20
-20 -20 -20 -20 -20 -20 -20 -20 -20 -20 -20 -20 -20 -20 -20 -20 -20 -20 -20 -20 -20 -20 -20 -20 -20 -20 -20 -20 -20 -20 -20 -20 -20 -20 -20 -20 -20 -20 -20 -20 -20 -20 -20 -20
-20 -20 -20 -20 -20 -20 -20 -20 -20 -20 -20 -20 -20 -20 -20 -20 -20 -20 -20 -20 -20 -20 -20 -20 -20 -20 -20 -20 -20 -20 -20 -20 -19 -20 -20 -20 -20 -20 -20 -20 -20 -20 -20 -20
-20 -20 -20 -20 -20 -20 -20 -20 -20 -20 -20 -20 -20 -20 -20 -20 -20 -20 -20 -20 -20 -20 -20 -20 -20 -20 -20 -20 -20 -20 -20 -20 -20 -18 -15 -20 -20 -20 -20 -20 -20 -20 -20 -20

GFSNGP_prec_radar_102.txt.gz
Reflectivity
-20 -20 -20 -20 -20 -20 -20 -20 -20 -20 -20 -20 -20 -20 -20 -20 -20 -20 -20 -20 -20 -20 -20 -20 -20 -20 -20 -14 13 11 26 35 24 30 24 45 34 24 28 23 16 -20 -20 -2
-20 -20 -20 -20 -20 -20 -20 -20 -20 -20 -20 -20 -20 -10 -18 -20 -20 -20 -20 -20 -20 -20 -20 -20 -20 -20 -20 -20 3 7 20 21 30 17 23 5 20 11 12 25 15 12 14 12
-20 -20 -20 -20 -20 -20 -20 -20 -4 -8 -1 -19 -4 16 -14 -15 -19 -3 -1 -2 -1 -1 -1 -15 -3 -3 -5 -1 -2 4 -10 -8 33 36 28 17 21 29 35 27 23 27 0 4
-20 -20 -20 -4 -10 -4 -20 -20 -11 -20 -16 -1 -8 1 2 1 -0 1 2 11 -2 0 0 -1 -4 -20 -20 -20 -19 -6 -15 2 13 22 25 32 29 3 29 37 43 44 30 22
-20 -20 -20 -17 -9 -20 -4 -4 -7 -15 -14 -7 -4 -8 1 2 0 13 15 18 4 5 3 -2 -1 -6 -20 -20 -20 -4 -10 -15 -2 1 8 7 10 8 25 25 27 31 37 36
-3 4 0 6 -20 -20 2 6 -20 -4 -3 10 4 18 2 0 8 16 21 5 7 8 8 -4 -2 -6 -20 -20 -20 -19 -17 4 4 2 -14 -13 13 19 23 32 27 36 41 23
6 8 7 -20 -20 -20 9 6 -7 -4 -1 -1 0 -3 2 8 13 15 9 10 10 11 1 3 5 -4 -9 -20 -18 -15 3 4 1 1 2 3 5 18 24 28 31 36 36 32
5 6 11 -20 -19 -6 2 4 -1 -3 3 -3 -1 5 7 11 7 7 8 9 9 2 -4 -5 -20 -20 -0 -17 -1 -2 -1 1 -16 -13 3 3 1 8 24 26 27 29 30 32
-11 5 -12 -4 -1 -2 3 3 4 9 14 10 14 18 15 5 11 11 6 -10 -19 -20 -20 -20 -20 -6 -3 -20 -19 -8 -8 -4 0 2 1 0 -7 -15 3 18 18 19 23 27
-14 4 1 -0 -3 -1 2 -3 10 5 3 4 9 6 10 11 7 -3 -1 -5 -20 -20 -20 -4 -20 -18 -10 -20 -20 -20 -20 -20 -20 -6 -3 0 -19 -16 -20 -1 2 7 15 14
3 4 -1 1 2 -2 -3 -4 5 10 0 -5 -11 4 -5 -2 -1 -1 -2 -4 -20 -20 -20 -8 -20 -20 -20 -20 -20 -20 -20 -20 -20 -20 -20 -11 -14 -18 5 6 0 3 4 3
-7 -9 2 2 3 2 -1 -3 -4 -20 -20 -20 -20 -3 -4 -2 -3 -4 -9 -20 -20 -20 -20 -8 -20 -20 -20 -20 -20 -20 -20 -20 -20 -20 -20 -20 -20 -3 -20 -20 -6 -18 -20 -0
-7 2 -20 1 0 -2 -20 -13 -19 -20 -20 -20 -8 -20 -20 -5 -19 -20 -20 -20 -20 -2 -4 -20 -20 -20 -20 -20 -20 -16 -20 -20 -20 -20 -20 -20 -6 -1 0 -20 -20 -20 -6 -7
-20 -20 -2 -13 -17 -20 -20 -20 -18 -20 -20 -20 -20 -20 -20 -20 -20 -20 -20 -20 -20 -20 -20 -20 -20 -20 -20 -20 -20 -5 1 -1 2 -1 -3 -1 0 2 -1 -7 -14 -7 -20 -20
2 -7 -20 -20 -20 -20 -20 -20 -20 -20 -20 -20 -20 -20 -20 -20 -20 -20 -20 -20 -20 -20 -20 -20 -20 -20 -20 -20 -20 -20 -19 -0 1 1 -2 -2 -2 -2 -3 -12 -12 -13 -9 -17
-6 -20 -20 -20 -20 -20 -20 -20 -20 -20 -20 -20 -20 -20 -20 -20 -20 -20 -20 -20 -20 -20 -20 -20 -20 -20 -20 -20 -20 -20 -20 -20 -17 -6 -20 -20 -20 -20 -20 -20 -20 -20 -20 -20
-5 -15 -20 -20 -20 -20 -20 -20 -20 -20 -20 -20 -20 -20 -20 -20 -20 -20 -20 -20 -20 -20 -20 -20 -20 -20 -20 -20 -4 -7 -8 -20 -20 -20 -20 -19 -20 -19 -17 -6 -20 -20 -20 -20
-5 -15 -20 -20 -20 -20 -20 -20 -20 -20 -20 -20 -20 -20 -20 -20 -20 -20 -20 -20 -20 -20 -20 -20 -20 -20 -20 -20 -20 -20 -20 -20 -20 -11 -9 -2 -13 -7 -1 -2 -3 -2 -0 -20
-20 -20 -20 -20 -20 -20 -20 -20 -20 -20 -20 -20 -20 -20 -20 -20 -20 -20 -20 -20 -20 -20 -20 -20 -20 -20 -20 -20 -20 -20 -20 -11 -14 -20 0 -0 3 1 3 3 2 2 2 2
-20 -20 -20 -20 -20 -20 -20 -20 -20 -20 -20 -20 -20 -20 -20 -20 -20 -20 -20 -20 -20 -20 -20 -20 -20 -20 -20 -20 -20 -20 -20 -7 -20 -7 2 0 4 7 7 -17 1 4 7 4
-20 -20 -20 -20 -20 -20 -20 -20 -20 -20 -20 -20 -20 -20 -20 -20 -20 -20 -20 -20 -20 -20 -20 -20 -20 -20 -20 -20 -20 -4 -0 -0 -1 1 4 6 5 6 7 9 9 8 8 9
-20 -20 -20 -20 -20 -20 -20 -20 -20 -20 -20 -20 -20 -20 -20 -20 -20 -20 -20 -20 -20 -20 -20 -20 -20 -20 -20 -20 -10 -0 -2 -2 2 3 3 3 4 5 5 7 7 2 10 10
-20 -20 -20 -20 -20 -20 -20 -20 -20 -20 -20 -20 -20 -20 -20 -20 -20 -20 -9 -20 -20 -20 -20 -20 -20 -20 -20 1 4 5 5 4 4 4 5 5 6 6 6 6 4 4 -7 8
-20 -20 -20 -20 -20 -20 -20 -20 -20 -20 -20 -20 -20 -20 -20 -2 1 -20 -20 -20 -20 -20 -20 -19 -20 -20 -20 5 8 8 7 7 8 8 7 -18 6 5 6 5 4 -20 2 4
-20 -20 -20 -20 -20 -20 -20 -20 -20 -20 -20 -20 -20 -20 -20 -20 -16 -6 2 5 -16 -17 6 -12 -20 -20 5 6 7 7 8 3 -3 8 4 9 8 7 6 6 5 -13 5 -6
-20 -20 -20 -20 -20 -20 -20 -20 -20 -20 -20 2 -8 -15 -12 -20 -20 -5 2 -8 -5 -12 7 6 4 -2 6 6 5 5 6 5 -7 0 8 8 8 -3 10 8 7 -2 -5 7
-20 -20 -20 -20 -20 -20 -20 -20 -0 -5 -11 -20 -20 -1 -15 0 3 -4 -14 6 5 4 5 4 5 -9 -15 1 4 5 5 5 -10 4 6 3 7 8 10 8 6 10 13 9

GFSNGP_prec_radar_105.txt.gz
Reflectivity
-20 -20 -20 -20 -20 -20 -20 -20 -20 -20 -18 -20 -20 -20 -1 -20 -20 -20 -20 -20 -20 -20 -20 -20 -20 -20 -20 -16 -13 -16 1 17 36 39 25 40 25 41 27 23 24 31 25 9
-20 -20 -20 -20 -20 -20 -20 -20 -20 -20 -20 -20 -20 -11 -20 -20 -20 -20 -20 -20 -20 -20 -20 -20 -20 -20 -5 -8 -2 -17 11 12 13 9 26 15 14 18 39 28 39 10 19 15
-20 -20 -20 -20 -20 -20 -20 -20 -20 -15 -7 -20 -15 -13 -15 -3 -12 -20 -20 -6 -2 -20 -7 -5 -2 -20 -3 -9 -20 -10 18 13 7 5 29 36 27 28 37 35 30 37 30 21
-20 -20 -20 -20 -20 -20 -20 -20 -20 -20 -20 -20 -12 -15 -7 -3 0 -5 -2 -3 -1 -1 2 1 5 -3 -5 -20 -20 -7 10 14 15 9 21 33 29 26 12 -13 5 33 35 28
-20 -20 -4 -20 -12 -17 -19 1 -20 -19 -20 -8 -20 -15 -16 -17 0 2 3 10 15 4 6 4 11 1 -3 -20 -20 -11 8 8 17 25 12 15 17 14 -5 5 18 32 34 30
-3 7 5 -2 -20 -20 -6 -17 -16 -6 -19 -8 5 10 7 2 1 3 12 18 8 13 12 13 10 -4 -3 -2 -12 -4 3 11 19 21 16 9 6 -0 3 10 16 17 21 31
4 6 1 -6 -20 -20 4 6 -8 -10 -20 -20 13 -4 4 3 3 12 12 10 18 14 11 9 9 -20 -5 -4 2 2 3 -6 -3 7 -2 10 2 1 20 30 23 23 23 27
7 11 17 -20 -20 -1 -3 -5 -20 -5 3 -1 -2 -2 -6 -4 6 10 8 15 11 9 5 -4 -20 -19 -20 -20 -16 -19 -20 -3 -9 -20 -14 -5 -10 -0 6 22 20 24 27 30
-1 7 -18 -7 -20 -19 -20 -5 2 -1 1 -4 -18 -19 -3 7 8 12 12 8 4 -6 -20 -20 -20 -20 -20 -20 -20 -5 -6 -20 -10 -18 -20 -9 -12 -6 -20 1 2 15 19 23
-14 -3 -18 -15 -11 -2 -4 -4 -2 -2 -4 -7 -2 9 14 14 7 1 0 -6 -20 -20 -20 -20 -20 -20 -20 -20 -20 -20 -20 -20 -20 -9 -10 -15 -20 -16 -20 -8 4 0 9 12
-4 -15 -9 -20 -12 -7 -6 -2 -2 -2 -5 -1 -2 0 -5 -2 1 1 -7 -6 -20 -20 -20 -20 -20 -20 -20 -20 -20 -20 -20 -20 -20 -20 -18 -14 -20 -20 -10 4 -2 -1 6 6
12 -20 -8 -20 -8 -8 -3 -4 -14 -20 -15 -20 -12 -5 -18 -11 -8 -1 -2 -3 -8 -10 -20 -20 -20 -20 -20 -20 -20 -20 -20 -20 -20 -20 -20 -20 -18 -20 -20 -20 -17 -3 -5 -7
-20 -20 -20 -20 -18 -6 -3 -4 -20 -20 -20 -20 -6 -12 -7 -1 -7 -7 -20 -20 -19 -3 -4 -4 -20 -9 -2 -8 -14 -3 -20 -20 -20 -20 -20 -20 -20 -20 -8 -20 -20 -20 -20 -20
-20 -20 -10 -18 -7 -20 -20 -20 -20 -20 -20 -20 -20 -20 -20 -20 -20 -20 -20 -20 -20 -20 -20 -20 -20 -17 -3 -18 -2 -16 2 1 2 0 -0 0 1 1 -1 -2 -4 2 -20 -20
-13 -11 -20 -20 -20 -20 -20 -20 -20 -20 -20 -20 -20 -20 -20 -20 -20 -20 -20 -20 -20 -20 -20 -20 -20 -20 -4 -20 3 3 -4 -9 4 4 -0 -1 -1 -1 -3 -5 -18 -20 -20 -20
-20 -20 -20 -20 -20 -20 -20 -20 -20 -20 -20 -20 -20 -20 -20 -20 -20 -20 -20 -20 -20 -20 -20 -20 -20 -20 -20 -20 -20 -16 -16 -20 -20 -2 -16 -4 -4 -4 -3 -1 -2 -4 -12 -20
-20 -9 -20 -20 -20 -20 -20 -20 -20 -20 -20 -20 -20 -20 -20 -20 -20 -20 -20 -20 -20 -20 -20 -20 -20 -20 -20 -20 -20 -20 -20 -20 -20 -20 -20 -12 -20 -20 -17 -4 -4 -3 -3 -20
-2 -20 -20 -20 -20 -20 -20 -20 -20 -20 -20 -20 -20 -20 -20 -20 -20 -20 -20 -20 -20 -20 -20 -20 -20 -20 -20 -20 -20 -20 -20 -20 -20 -20 -20 -16 -15 -20 -3 1 -0 -0 -1 -14
-11 -11 -8 -20 -20 -20 -20 -20 -20 -20 -20 -20 -20 -20 -20 -20 -20 -20 -20 -20 -20 -20 -20 -20 -20 -20 -20 -20 -20 -20 -20 -11 -20 -20 -11 -20 -0 2 4 1 2 6 6 6
-3 -20 -20 -20 -20 -20 -20 -20 -20 -20 -20 -20 -20 -20 -20 -20 -20 -20 -20 -20 -20 -20 -20 -20 -20 -20 -20 -20 -20 -20 -20 -3 -20 -5 -0 -0 3 2 6 6 9 9 8 8
-19 -20 -20 -20 -20 -20 -20 -20 -20 -20 -20 -20 -20 -20 -20 -20 -20 -20 -20 -20 -20 -20 -20 -20 -20 -20 -20 -20 -20 -5 -1 -1 -1 1 2 3 3 4 4 8 7 5 13 9
-20 -20 -20 -20 -20 -20 -20 -20 -20 -20 -20 -20 -20 -20 -20 -20 -20 -20 -20 -20 -20 -20 -20 -20 -20 -20 -20 -20 -1 3 2 0 2 4 3 4 4 6 4 6 5 8 7 9
-20 -20 -20 -20 -20 -20 -20 -20 -20 -20 -20 -20 -20 -20 -9 -15 -20 -11 1 -20 -20 -20 -20 -7 -20 -20 -20 -13 6 6 8 5 9 9 8 10 7 8 8 8 6 7 8 7
-20 -20 -20 -20 -20 -20 -20 -20 -20 -20 -20 -20 -20 -20 -20 1 2 -20 -10 -20 -20 -20 1 1 -12 -20 -20 4 12 10 8 9 11 13 10 -1 12 12 11 10 10 8 9 7
-20 -20 -20 -20 -20 -20 -20 -20 -20 -20 -20 -20 -20 -20 -20 -5 -12 -10 0 8 -14 -8 6 -15 -20 -20 11 8 10 7 8 8 10 8 10 12 11 8 14 12 12 11 8 4
-20 -20 -20 -20 -20 -20 -20 -20 -20 -20 -20 2 1 4 3 -1 1 1 4 -8 0 -6 10 10 7 1 4 5 2 8 7 9 10 -6 -7 9 11 12 9 9 12 16 13 14
-20 -20 -20 -20 -20 -20 -20 -20 -10 -15 -6 -1 0 2 1 3 5 -5 -15 7 6 5 9 6 6 -8 6 2 6 5 -2 3 -12 2 -0 6 1 -12 5 2 -3 0 1 1